Location: ČR
(50.0000°N, 15.0000°E)
Time: 06:46:35
(UTC+02:00)

A-11 Canister half - Pass Details

Date: 15 March 2026
Orbit: 1514 x 1685 km, 47.2° (Epoch: 18 April)

Event Time Altitude Azimuth Distance (km) Brightness Sun altitude
Rises 13:56:14 0° 222° (SW) 4,828 12.7 33.1°
Reaches altitude 10° 13:59:28 10° 216° (SW) 3,866 12.6 32.8°
Maximum altitude 14:08:46 47° 147° (SSE) 2,105 10.4 32.0°
Drops below altitude 10° 14:18:16 10° 78° (ENE) 3,952 10.8 31.1°
Sets 14:21:35 0° 73° (ENE) 4,944 11.2 30.7°
